Regional Weather Roundup
Issued by NWS

Home | Current Version | Previous Version | Graphics & Text | Print | Product List | Glossary On
Versions: 1 2 3 4 5 6 7 8 9 10 11 12 13 14 15 16 17 18 19 20 21 22 23 24 25 26 27 28 29 30 31 32 33 34 35 36 37 38 39 40 41 42 43 44 45 46 47 48 49
000
ASUS45 KSLC 040610
RWRUT

UTAH REGIONAL WEATHER ROUNDUP
NATIONAL WEATHER SERVICE SALT LAKE CITY UT
1200 AM MDT SAT JUL 04 2015

UTZ001>011-023>025-040700-

NORTHERN UTAH

CITY           SKY/WX    TMP DP  RH WIND       PRES   REMARKS
BRIGHAM CITY   MOCLDY    79  46  31 CALM      29.93S
HILL AFB       PTCLDY    79  46  30 E13       29.97S
LOGAN          CLEAR     69  56  62 N8        29.94S
OGDEN          MOCLDY    79  47  32 S9        29.94S
PROVO AIRPORT  MOCLDY    73  52  46 S6        29.96S
SALT LAKE CITY MOCLDY    85  50  29 SE6       29.91S
VERNAL         MOCLDY    81  39  22 VRB6      30.00R
WENDOVER       CLOUDY    90  43  19 NW15      29.94F
HEBER CITY     PTCLDY    64  46  52 CALM      30.07S
WEST JORDAN    CLEAR     81  45  28 CALM      29.96F

$$

UTZ012>022-026-027-040700-

SOUTHERN/CENTRAL UTAH

CITY           SKY/WX    TMP DP  RH WIND       PRES   REMARKS
BLANDING       MOCLDY    67  49  53 CALM      30.22S
BRYCE CANYON   MOCLDY    65  49  56 W8        30.25F
CEDAR CITY     CLOUDY    78  46  32 SE8       30.07F
DELTA          MOCLDY    84  41  21 CALM      29.97S
HANKSVILLE     CLOUDY    88  43  20 NW14G20   29.95S
MILFORD        CLOUDY    79  45  29 SW9       30.00S
MOAB/CYNLANDS  CLEAR     87  50  27 S14       29.94R
PRICE          PTCLDY    80  37  21 CALM      30.05S
ST GEORGE      PTCLDY    90  52  27 E7        29.87S
KANAB          CLOUDY    73  63  68 N5        30.09F

$$

REGIONAL REPORTS     COLORADO/ARIZONA

CITY           SKY/WX    TMP DP  RH WIND       PRES   REMARKS
CRAIG, CO      CLEAR     62  45  53 CALM      30.09S
GRAND JUNCTION PTCLDY    78  49  35 SE16      29.98R
RIFLE          NOT AVBL
MONTROSE       CLEAR     68  48  48 SE6       30.11S
CORTEZ         CLEAR     66  51  58 CALM      30.16R
PAGE, AZ       CLOUDY    87  47  24 SW7       29.97F
GRAND CANYON   CLOUDY    63  56  78 SE6       30.24S
KINGMAN        CLOUDY    84  47  27 SE8       29.95F
FLAGSTAFF      RAIN      59  59 100 S3        30.31F FOG

$$

REGIONAL REPORTS    NEVADA/IDAHO/WYOMING

CITY           SKY/WX    TMP DP  RH WIND       PRES   REMARKS
LAS VEGAS, NV  MOCLDY    99  36  11 S14       29.74R HX  93
ELY            CLEAR     66  49  54 S10       30.14S
ELKO           PTCLDY    72  53  51 CALM      30.04S
POCATELLO, ID  CLEAR     76  48  37 SW10      29.93S
BURLEY         MOCLDY    75  50  41 SW10      29.91F
EVANSTON, WY   PTCLDY    69  42  37 SE6       30.19S
ROCK SPRINGS   PTCLDY    73  38  27 W5        30.13S
KEMMERER       MOCLDY   N/A N/A N/A N5        30.20S

$$


USA.gov is the U.S. government's official web portal to all federal, state and local government web resources and services.